{"data":{"norad_id":68253,"intl_designator":"2026-054X","name":"STARLINK-37086","alt_names":[],"object_type":"PAYLOAD","status":"ACTIVE","operator":null,"country":"US","launch_date":"2026-03-17","launch_site_code":"AFETR","launch_vehicle":null,"mission":null,"orbit_class":"UNKNOWN","rcs_meters":null,"size_class":null,"mass_kg":null,"dimensions":null,"purposes":["comms"],"wikipedia_slug":null,"has_3d_model":false,"image_url":null,"decayed_at":null,"tle_current":{"epoch":"2026-05-24T20:38:32.652960Z","epoch_age_seconds":87219,"freshness":"FRESH","line1":"1 68253U 26054X   26144.86010015  .00061167  00000+0  10986-2 0  9995","line2":"2 68253  53.1576 299.5481 0001018  62.8123 297.2989 15.49326595 10706","mean_motion":15.49326595,"eccentricity":0.0001018,"inclination_deg":53.1576,"raan_deg":299.5481,"arg_perigee_deg":62.8123,"mean_anomaly_deg":297.2989,"bstar":0.0010986,"rev_number":1070,"period_min":92.943605605634,"perigee_km":418.00290529258,"apogee_km":419.38674025169,"semimajor_km":6796.8318227721,"source":"CELESTRAK","updated_at":"2026-05-25T13:38:21.887537Z"}}}